Regional Weather Roundup
Issued by NWS Wakefield, VA

Home | Current Version | Previous Version | Graphics & Text | Print | Product List | Glossary On
Versions: 1 2 3 4 5 6 7 8 9 10 11 12 13 14 15 16 17 18 19 20 21 22 23 24 25 26 27 28 29 30 31 32 33 34 35 36 37 38 39 40 41 42 43 44 45 46 47 48 49 50
709
ASUS41 KAKQ 220615
RWRAKQ

REGIONAL WEATHER ROUNDUP
NATIONAL WEATHER SERVICE WAKEFIELD VA
200 AM EDT SUN APR 22 2018

Note: "fair" indicates few or no clouds below 12,000 feet with no
significant weather and/or obstructions to visibility. * = Denotes
station may not report precipitation (e.g., rain,snow,etc.),
thunder or fog.

VAZ042-051-052>054-056-220700-
NORTHERN VIRGINIA

CITY           SKY/WX    TMP DP  RH WIND       PRES   REMARKS
WASH NATIONAL  CLOUDY    51  40  65 S6        30.39S
DULLES         CLOUDY    48  38  68 CALM      30.38S
FORT BELVOIR   CLOUDY    47  35  63 CALM      30.38F
QUANTICO       FAIR      51  41  68 S6        30.40R
FREDERICKSBRG* FAIR      51  38  61 SE5       30.38S
STAFFORD*      FAIR      49  37  61 CALM      30.42S
WARRENTON      FAIR      43  36  77 CALM      30.38S
CULPEPER*      FAIR      44  35  69 CALM      30.39S
MANASSAS*      FAIR      45  40  82 CALM      30.39S
LEESBURG*      MOCLDY    50  37  62 CALM      30.38F
WINCHESTER     FAIR      43  32  65 CALM      30.37F
FRONT ROYAL*   MOCLDY    46  30  53 CALM      30.34F
LURAY*         FAIR      43  36  75 CALM      30.35F
$$

VAZ048-049-060>072-079>083-220700-
CENTRAL AND SOUTH CENTRAL VIRGINIA

CITY           SKY/WX    TMP DP  RH WIND       PRES   REMARKS
RICHMOND       CLOUDY    49  42  77 SE3       30.39R
CHESTERFIELD*  FAIR      49  41  74 SE3       30.39S
PETERSBURG*    FAIR      47  39  74 CALM      30.39S
HANOVER        FAIR      50  40  68 S6        30.40R
TAPPAHANNOCK*  FAIR      47  40  77 CALM      30.40S
QUINTON*       FAIR      47  38  70 CALM      30.39S
CHARLOTTSVILLE FAIR      55  30  38 E5        30.36S
GORDONSVILLE*  FAIR      50  38  63 CALM      30.37S
ORANGE*        FAIR      46  41  81 CALM      30.37S
LOUISA*        FAIR      51  37  57 SE3       30.41S
BUMPASS*       FAIR      50  36  59 CALM      30.37F
FARMVILLE*     FAIR      49  36  61 CALM      30.36R
CREWE*         FAIR      47  46  93 SE5       30.37S
FORT PICKETT*  FAIR      47  44  88 S9        30.37F
CHASE CITY*    FAIR      49  36  59 SE5       30.36S
CLARKSVILLE*   FAIR      48  37  66 S3        30.36S
SOUTH HILL*    FAIR      47  43  84 SE5       30.43S
LAWRENCEVILLE* FAIR      47  43  85 SE3       30.38S
EMPORIA*         N/A     45  41  87 CALM      30.41S
$$

VAZ088>098-220700-
SOUTHEAST VIRGINIA

CITY           SKY/WX    TMP DP  RH WIND       PRES   REMARKS
NORFOLK        FAIR      47  38  71 S6        30.40F
VIRGINIA BEACH FAIR      45  40  82 CALM      30.40F
NORFOLK NAVAL  CLOUDY    48  36  63 S5        30.41F
WEST POINT*    FAIR      48  37  65 S6        30.41F
SALUDA*        FAIR      43  42  96 CALM      30.40S
NEWPORT NEWS   FAIR      49  38  65 S7        30.40F
LANGLEY AFB    FAIR      49  39  70 S8        30.40F
FORT EUSTIS    FAIR      49  40  70 S7        30.38S
WILLIAMSBURG*  FAIR      52  37  58 CALM      30.41S
HR EXEC AP*    FAIR      38  37  97 CALM      30.41F
FRANKLIN*      FAIR      45  39  81 CALM      30.40F
US460-WAKEFLD  FAIR      47  40  76 CALM      30.39F
$$

VAZ020-022-025-037-045-220700-
WEST CENTRAL AND SOUTHWEST VIRGINIA

CITY           SKY/WX    TMP DP  RH WIND       PRES   REMARKS
STAUNTON*      FAIR      44  35  71 CALM      30.36F
WAYNESBORO*    FAIR      49  30  48 CALM      30.34F
HOT SPRINGS VA FAIR      47  20  35 S7        30.33F
LYNCHBURG      FAIR      46  32  58 CALM      30.35S
DANVILLE       FAIR      43  38  82 E3        30.35R
SOUTH BOSTON*  FAIR      46  36  67 CALM      30.35S
MARTINSVILLE   FAIR      38  34  84 CALM      30.35F
ROANOKE        FAIR      51  31  46 CALM      30.35S
BLACKSBURG     FAIR      47  34  60 CALM      30.35F
DUBLIN*        FAIR      46  36  68 CALM      30.33F
MARION*        FAIR      46  33  60 CALM      30.32F
HILLSVILLE*    FAIR      50  30  46 S5        30.31F
RICHLANDS*     FAIR      52  -1  11 SE5       30.28F
WISE*          FAIR      52  32  46 S6        30.29F
ABINGDON*      FAIR      51  33  51 CALM      30.28F
$$

MDZ021>025-VAZ099-100-220700-
SOUTHERN MARYLAND AND THE DELMARVA PENINSULA

CITY           SKY/WX    TMP DP  RH WIND       PRES   REMARKS
PATUXENT RIVER FAIR      48  41  76 CALM      30.39S
BAY BRIDGE APT FAIR      50  39  66 CALM      30.39S
LEONARDTOWN    FAIR      46  37  71 CALM      30.41S
DOVER          CLOUDY    46  33  61 SW6       30.38S
GEORGETOWN     FAIR      45  38  76 CALM      30.39S
EASTON         FAIR      47  38  69 CALM      30.42F
CAMBRIDGE      CLEAR     45  39  81 CALM      30.39F
SALISBURY      FAIR      43  39  86 CALM      30.39F
TANGIER        FAIR      50  43  76 S9        30.40S
OCEAN CITY     FAIR      46  42  86 SW7       30.40S
WALLOPS ISLAND FAIR      46  42  86 W3        30.41S
ACCOMACK*      FAIR      40  38  96 S5        30.40F
$$

NCZ012>017-030>032-220700-
NORTH CENTRAL AND EASTERN NORTH CAROLINA

CITY           SKY/WX    TMP DP  RH WIND       PRES   REMARKS
ROANOKE RAPIDS FAIR      46  43  87 CALM      30.39S
RALEIGH        FAIR      52  40  63 S5        30.37R
ELIZABETH CITY FAIR      48  39  71 SE3       30.40F
AHOSKIE*       FAIR      45  41  86 CALM      30.40S
EDENTON*       FAIR      49  42  74 SE3       30.40F
CURRITUCK*     NOT AVBL
KILL DEVIL HLS FAIR      44  36  73 CALM      30.39F
MANTEO         FAIR      40  37  88 CALM      30.41F
CAPE HATTERAS  FAIR      49  39  68 NE5       30.40F
TARBORO*       NOT AVBL
GOLDSBORO      FAIR      48  39  70 SE3       30.36F
WASHINGTON     NOT AVBL
GREENVILLE     FAIR      46  43  87 CALM      30.39F
NEW BERN       FAIR      50  45  83 E3        30.39F
WILMINGTON     FAIR      47  43  86 CALM      30.36F
$$

VAZ048-220700-
ELSEWHERE

CITY           SKY/WX    TMP DP  RH WIND       PRES   REMARKS
HARRISBURG PA  MOCLDY    44  36  73 CALM      30.37F
BALTIMORE      CLOUDY    48  35  60 CALM      30.37F
ANNAPOLIS      FAIR      52  39  61 CALM      30.38S
ANDREWS AFB    MOCLDY    48  37  65 CALM      30.37F
PHILADELPHIA   MOCLDY    49  33  54 W3        30.39S
HENDERSON NC   FAIR      47  35  61 SE5       30.37R
GREENSBORO     FAIR      51  37  58 S8        30.32F
ROCKY MOUNT    FAIR      47  41  80 CALM      30.39R
$$

VAZ100-220700-
MARINE

STATION/POSITION TIME  TEMP    WIND        PRES    WAVE   SWELL
                       AIR SEA DIR/SP/G            HT/PER HT/PER
                 (UTC) (F)     (DEG/KT/KT) (MB)    (FT/S) (FT/S)
BRANDYWINE LGT   0536   49     250/ 12/ 13 1029.1F
CAPE MAY NJ      0542   48 50  230/  4/  5 1028.4S
LEWES DE         0536   45 50  230/  5/  6 1028.8S
15NM E FENWICK I 0550   45 46  220/  8/  8 1029.4F   1/ 4   2/14
OCEAN-CITY-INLET 0536   46 49  260/  4/  5 1029.7S
WACHAPREAGUE VA  0536   47 55  220/  4/  5 1029.6F
THOMAS POINT MD  0600   50 51  190/  4/  5 1029.7F
GOOSES REEF MD   0600   51     190/  6/  8 1029.5
COVE POINT MD    0536   50     190/  8/  9 1029.7F
SOLOMONS ISLAND  0536   49 53  180/  3/  5 1029.0F
BISHOPS HEAD MD  0536   51 58  200/  8/ 10 1029.6F
PINEY POINT MD   0536          190/  6/  8   N/A
POTOMAC MD       0600   50 53  190/  6/  8 1030.5    1/ 2
CAMBRIDGE MD     0536   48 54              1030.0R
LEWISETTA VA     0536   49 54  210/  8/  9 1029.1F
RAPPAHANNOCK LGT 0536          180/ 11/ 13 1030.2S
YORK RVR RNG VA  0536   51     200/ 10/ 12   N/A
YORKTOWN VA      0536   49 56  190/  1/  4 1029.3F
DOMINION TERM VA 0536   50     170/  9/ 11 1029.8F
KIPTOPEKE VA     0536      54  190/ 11/ 12   N/A
CAPE HENRY VA    0536   47     190/  5/  8   N/A
WILLOUBY STN VA  0536   50     160/  6/  8 1029.6F
S CRANEY ISL VA  0536   50     180/  9/ 11 1029.6S
CAPE HENRY BUOY  0600      50                N/A     2/ 5
64NM E OF VA BCH 0550   49 49  120/  2/  4 1030.0F   2/ 6   2/ 6
DUCK PIER NC     0536   50 53  130/  6/  8 1029.4S
44100 DUCK FRF   0545      50                N/A     2/13
44056 DUCK FRF   0600      52                N/A     2/ 6
OREGON INLET NC  0536   48 58   80/  3/  4 1029.6F
HATTERAS NC      0536   51 61   70/  4/  6 1029.1F
DIAMOND SHLS NC  0550   59 73   40/  8/ 14 1029.1F   3/ 7   3/ 7
CAPE LOOKOUT NC  0600           80/ 10/ 11 1028.7F
$$




USA.gov is the U.S. government's official web portal to all federal, state and local government web resources and services.